Weather in Gorkhon

Russia / Republic of Buryatia     51°33′42″N   108°47′11″E
temp.,
°C
wind,
m/s
gust,
m/s
humid.,
%
clouds,
%
prec.,
mm/h
press.,
hPa
HPBL,
m
18 may, tue
tue1823:00+5wnw21091100 0.1 1008406
02:00+4wnw4108652 0.2 1008695
05:00+3wnw139292 0.0 1009166
08:00+6nw356692 0.0 10101007
11:00+8wnw465371 0.1 10091589
14:00+11nw583794 0.1 10072171
17:00+12wnw483599 0.0 10052025
20:00+8wsw2251100 0.0 100518
19 may, wed
wed1923:00+5s226191 0.0 100318
02:00+4sse2666100 0.0 999117
05:00+6ssw31167100 0.1 995473
08:00+8wsw31278100 0.7 9941039
11:00+9nw6106770 0.6 10001191
14:00+11nnw78396 0.6 10021286
17:00+10nnw3440100 0.0 10031403
20:00+6e115380 0.0 100310
20 may, thu
thu2023:00+5sse2356100 0.0 100352
02:00+5e2257100 0.0 100151
05:00+4ene115890 0.0 99930
08:00+7nne2251100 0.0 1000436
11:00+12ne3241100 0.0 9991052
14:00+8nne138099 2.3 1002554
17:00+13ene455139 0.0 9991014
20:00+9ene5116490 0.0 999695
21 may, fri
fri2123:00+5ne398485 0.0 1000373
02:00+6nne2487100 0.3 999281
05:00+4ne2595100 0.3 998378
08:00+5ne3590100 0.3 999541
11:00+7ne3482100 0.4 1000679
14:00+10ne4467100 0.4 998915
17:00+9ne5668100 0.0 998756
20:00+5n4889100 0.6 998570
22 may, sat
sat2223:00+4nw3698100 5.3 1000591
02:00+1wnw2498100 6.0 1002250
05:00+1wnw2397100 0.4 1003234
08:00+1w2598100 1.5 1003222
11:00+2w3796100 1.4 1003466
14:00+1wnw61496100 3.8 1003788
17:00+3nw8188395 2.1 10041843
20:00+3wnw6148352 2.3 10051186